Flag for Canada Weather past 2 weeks in Yellowknife, Northwest Territories, Canada

Now
37 °F

Light rain. Low clouds.


Feels Like: 28 °F
Forecast: 33 / 39 °F
Wind: 16 mph from Southeast

Location: Yellowknife

Current Time: Oct 23, 2014 at 7:23:49 AM

Latest Report: Oct 23, 2014 at 7:00 AM


Visibility: 15 mi

Pressure: 29.55 "Hg

Humidity: 93%

Dew point: 36 °F

Location of YellowknifeLocation

Historic Weather in Yellowknife — Graph

°F

Yellowknife temperature yesterday

Maximum temperature yesterday: 37 °F (at 11:00 PM)
Minimum temperature yesterday: 30 °F (at 12:00 AM)
Average temperature yesterday: 32 °F

Past Weeks' High & Low Weather Summary

 TemperatureHumidityPressure
High46 °F (Oct 10, 1:00 PM)100% (Oct 11, 10:00 AM)30.33 "Hg (Oct 11, 10:00 AM)
Low23 °F (Oct 16, 6:00 AM)60% (Oct 8, 3:00 PM)29.19 "Hg (Oct 11, 10:00 AM)
Average34 °F87%29.77 "Hg
* Reported Oct 8 6:00 AM — Oct 23 6:00 AM, Yellowknife, Weather by CustomWeather, © 2014

Note: Actual official high and low records may vary slightly from our data, if they occured in-between our weather recording intervals... More about our weather records

Advertising

Yellowknife weather history for previous 24 hours

 ConditionsComfort  
Time TempWeatherWind HumidityBarometerVisibility
6:00 AM
Oct 23
36 °FLight rain. Low clouds.17 mph100%29.55 "Hg10 mi
5:52 AM36 °FLight rain. Low clouds.17 mph100%29.54 "Hg10 mi
5:00 AM37 °FLight rain. Low clouds.18 mph93%29.55 "Hg10 mi
4:00 AM36 °FLight rain. Low clouds.18 mph100%29.56 "Hg10 mi
3:00 AM36 °FLight rain. Low clouds.20 mph100%29.59 "Hg10 mi
2:00 AM36 °FLight rain. Low clouds.18 mph93%29.60 "Hg10 mi
1:00 AM36 °FLight rain. Low clouds.21 mph100%29.63 "Hg10 mi
12:00 AM37 °FLight rain. Low clouds.21 mph93%29.66 "Hg10 mi
11:00 PM
Oct 22
37 °FLight rain. Low clouds.16 mph93%29.69 "Hg15 mi
10:00 PM36 °FLow clouds.15 mph93%29.71 "Hg15 mi
9:00 PM36 °FLow clouds.16 mph93%29.73 "Hg15 mi
8:00 PM34 °FLow clouds.14 mph100%29.73 "Hg15 mi
7:47 PM34 °FLow clouds.15 mph93%29.74 "Hg15 mi
7:00 PM34 °FLow clouds.15 mph93%29.75 "Hg15 mi
6:00 PM34 °FLow clouds.14 mph93%29.76 "Hg15 mi
5:00 PM34 °FLow clouds.12 mph93%29.77 "Hg12 mi
4:00 PM34 °FMostly cloudy.10 mph93%29.78 "Hg8 mi
3:00 PM32 °FMostly cloudy.10 mph93%29.79 "Hg10 mi
2:00 PM32 °FIce fog.7 mph93%29.79 "Hg5 mi
1:00 PM32 °FIce fog.9 mph93%29.78 "Hg3 mi
12:04 PM30 °FIce fog.8 mph93%29.79 "Hg5 mi
11:01 AM30 °FPartly sunny.10 mph93%29.78 "Hg15 mi
10:00 AM30 °FLow clouds.7 mph93%29.78 "Hg15 mi
9:56 AM30 °FLow clouds.8 mph93%29.78 "Hg15 mi
9:00 AM30 °FLow clouds.12 mph93%29.76 "Hg15 mi
8:00 AM30 °FLow clouds.9 mph93%29.75 "Hg15 mi
7:55 AM30 °FLow clouds.8 mph93%29.75 "Hg15 mi
7:00 AM30 °FLight snow. Low clouds.8 mph93%29.75 "Hg15 mi
Weather by CustomWeather, © 2014

See weather overviewHow to use our weather pages